This demonstration page uses our WeatherBlox Daily Observations layout. Learn more.

Left ArrowRight Arrow

41.55636, -103.73856

Hourly Observations for February 25, 2020

Temp ( °F °C ) Dew Point ( °F °C ) Humidity (%) Winds ( mph kmh ) Pressure ( in mb ) Visibility ( mi km ) Precip ( " mm )
12:58 am 00:58 Cloudy with Light Rain 31 -0.5 22 -5.6 69 69 NW 23 37 30.03 1017 10 16 N/A
1:58 am 01:58 Mostly Cloudy 30 -1.2 22 -5.3 74 74 NW 24 39 30.05 1018 10 16 N/A
2:58 am 02:58 Cloudy 30 -1.3 22 -5.7 72 72 NW 29 46 30.03 1017 10 16 N/A
3:58 am 03:58 Cloudy 29 -1.5 22 -5.8 73 73 NW 24 39 30.04 1017 10 16 N/A
4:58 am 04:58 Mostly Cloudy 29 -1.8 20 -6.9 68 68 NNW 22 35 30.06 1018 10 16 N/A
5:58 am 05:58 Mostly Cloudy with Light Snow 27 -2.7 17 -8.2 66 66 NNW 33 54 30.10 1019 10 16 N/A
6:58 am 06:58 Windy with Snow Showers Likely 26 -3.6 17 -8.5 69 69 NNW 26 43 30.12 1020 10 16 N/A
7:58 am 07:58 Mostly Cloudy with Light Snow 24 -4.6 16 -8.7 73 73 NNW 33 54 30.14 1021 6 10 N/A
8:58 am 08:58 Windy with Snow Likely 23 -5.1 16 -9 74 74 NNW 35 56 30.15 1021 10 16 N/A
9:58 am 09:58 Windy with Snow Likely 22 -5.5 17 -8.2 82 82 NNW 31 50 30.16 1021 4 6 N/A
10:58 am 10:58 Windy with Snow Likely 22 -5.8 19 -7.4 89 89 NNW 24 39 30.19 1022 2 4 N/A
11:58 am 11:58 Windy with Snow Likely 21 -6 18 -7.7 88 88 NNW 23 37 30.22 1023 3 4 N/A
12:58 pm 12:58 Mostly Cloudy with Light Snow 21 -6.1 18 -7.8 88 88 N 24 39 30.26 1025 2 3 N/A
1:58 pm 13:58 Cloudy with Snow 20 -6.4 18 -7.9 89 89 N 16 26 30.34 1027 1 1 N/A
2:59 pm 14:59 Windy with Snow Likely 20 -6.4 18 -8 89 89 N 20 31 30.39 1029 1 2 N/A
3:58 pm 15:58 Cloudy with Snow 21 -6.1 18 -7.9 87 87 N 17 28 30.44 1031 5 8 N/A
4:58 pm 16:58 Windy with Snow Likely 22 -5.5 17 -8.1 82 82 N 21 33 30.46 1032 1 2 N/A
5:58 pm 17:58 Cloudy with Snow 22 -5.3 18 -7.6 84 84 N 21 33 30.49 1033 1 1 N/A
6:58 pm 18:58 Mostly Cloudy with Light Snow 24 -4.6 17 -8.5 74 74 NNE 24 39 30.50 1033 4 6 N/A
7:58 pm 19:58 Windy with Snow Showers Likely 25 -4.1 16 -9.1 69 69 NNE 21 33 30.53 1034 10 16 N/A
8:58 pm 20:58 Windy with Snow Showers Likely 24 -4.2 15 -9.3 68 68 NNE 24 39 30.55 1034 6 10 N/A
9:58 pm 21:58 Cloudy with Light Snow 23 -5 19 -7.4 83 83 N 15 24 30.58 1036 7 11 N/A
10:58 pm 22:58 Cloudy with Light Snow 23 -5.1 20 -6.8 88 88 N 12 19 30.59 1036 1 2 N/A

Powered by AerisWeather